Monterey, CA

3:51 AM PDT on April 24, 2018 (GMT -0700)
Monterey Peninsula

Weather History for KMRY - August, 2013

Change the Weather History Date:

Wednesday, August 28, 2013

  Actual Average Record
Temperature  
Mean Temperature 63 °F 62 °F  
Max Temperature 73 °F 70 °F 92 °F (2009)
Min Temperature 53 °F 54 °F 48 °F (2012)
Degree Days  
Heating Degree Days 2    
Month to date heating degree days 71  
Since 1 June heating degree days 312  
Since 1 July heating degree days 184  
Cooling Degree Days 0    
Month to date cooling degree days 5  
Year to date cooling degree days 26  
Since 1 June cooling degree days 19  
Growing Degree Days 12 (Base 50)    
Moisture  
Dew Point 56 °F    
Average Humidity 84    
Maximum Humidity 100    
Minimum Humidity 68    
Precipitation  
Precipitation 0.00 in - 0.00 in (2018)
Month to date precipitation 0.10  
Year to date precipitation 3.25  
Since 1 July precipitation 0.10  
Sea Level Pressure  
Sea Level Pressure 29.93 in    
Wind  
Wind Speed 5 mph (WSW)    
Max Wind Speed 14 mph    
Max Gust Speed 16 mph    
Visibility 6 miles    
Events Fog    
T = Trace of Precipitation, MM = Missing Value Source: NWS Daily Summary

Daily Weather History Graph

Daily Weather History Graph

Search for Another Location

Airport or City:

Astronomy

Aug. 28, 2013 Rise Set
Actual Time 6:35 AM PDT 7:40 PM PDT
Civil Twilight 6:09 AM PDT 8:07 PM PDT
Nautical Twilight 5:37 AM PDT 8:38 PM PDT
Astronomical Twilight 5:04 AM PDT 9:11 PM PDT
Moon No Moon Rise 2:18 PM PDT (8/28)
Length of Visible Light 13h 58m
Length of Day
13h 04m
Last Quarter, 46% of the Moon is Illuminated
Aug 28
Last Quarter
Sep 5
New
Sep 12
First Quarter
Sep 19
Full
Sep 26
Last Quarter

Hourly Weather History & Observations

Time (PDT) Temp. Dew Point Humidity Pressure Visibility Wind Dir Wind Speed Gust Speed Precip Events Conditions
12:54 AM 59.0 °F 55.9 °F 90% 29.93 in 7.0 mi WNW 3.5 mph - N/A   Partly Cloudy
1:06 AM 57.2 °F 57.2 °F 100% 29.90 in 6.0 mi Calm Calm - N/A   Mostly Cloudy
1:25 AM 57.2 °F 55.4 °F 94% 29.89 in 2.0 mi Calm Calm - N/A   Scattered Clouds
1:28 AM 57.2 °F 55.4 °F 94% 29.89 in 1.0 mi Calm Calm - N/A   Mist
1:35 AM 57.2 °F 55.4 °F 94% 29.89 in 0.5 mi Calm Calm - N/A Fog Fog
1:51 AM 55.4 °F 55.4 °F 100% 29.89 in 2.0 mi Calm Calm - N/A   Mostly Cloudy
1:54 AM 55.9 °F 55.0 °F 97% 29.93 in 5.0 mi Calm Calm - N/A   Mostly Cloudy
2:07 AM 55.4 °F 53.6 °F 94% 29.89 in 8.0 mi Calm Calm - N/A   Partly Cloudy
2:54 AM 55.0 °F 53.1 °F 93% 29.91 in 10.0 mi Calm Calm - N/A   Clear
3:54 AM 54.0 °F 52.0 °F 93% 29.91 in 10.0 mi East 3.5 mph - N/A   Scattered Clouds
4:03 AM 55.4 °F 51.8 °F 88% 29.87 in 10.0 mi Calm Calm - N/A   Mostly Cloudy
4:27 AM 55.4 °F 53.6 °F 94% 29.88 in 2.5 mi Calm Calm - N/A   Overcast
4:42 AM 55.4 °F 55.4 °F 100% 29.88 in 1.2 mi Calm Calm - N/A   Overcast
4:54 AM 57.0 °F 55.0 °F 93% 29.91 in 0.5 mi Calm Calm - N/A Fog Fog
5:21 AM 57.2 °F 55.4 °F 94% 29.88 in 0.2 mi Calm Calm - N/A Fog Fog
5:54 AM 55.0 °F 55.0 °F 100% 29.91 in 0.2 mi Calm Calm - N/A Fog Fog
6:27 AM 53.6 °F 53.6 °F 100% 29.89 in 0.5 mi Calm Calm - N/A Fog Fog
6:54 AM 54.0 °F 54.0 °F 100% 29.93 in 0.2 mi Calm Calm - N/A Fog Fog
6:59 AM 53.6 °F 53.6 °F 100% 29.90 in 1.0 mi Calm Calm - N/A   Mist
7:07 AM 53.6 °F 51.8 °F 94% 29.90 in 10.0 mi East 3.5 mph - N/A   Scattered Clouds
7:54 AM 55.0 °F 53.1 °F 93% 29.94 in 10.0 mi Calm Calm - N/A   Clear
8:34 AM 57.2 °F 55.4 °F 94% 29.92 in 2.0 mi West 3.5 mph - N/A   Mostly Cloudy
8:54 AM 57.0 °F 55.9 °F 96% 29.96 in 2.0 mi Calm Calm - N/A   Mostly Cloudy
9:01 AM 57.2 °F 55.4 °F 94% 29.92 in 2.5 mi Calm Calm - N/A   Overcast
9:18 AM 59.0 °F 55.4 °F 88% 29.92 in 1.2 mi Calm Calm - N/A   Overcast
9:24 AM 60.8 °F 57.2 °F 88% 29.92 in 3.0 mi Calm Calm - N/A   Overcast
9:46 AM 60.8 °F 55.4 °F 82% 29.93 in 9.0 mi Calm Calm - N/A   Mostly Cloudy
9:54 AM 61.0 °F 55.9 °F 83% 29.96 in 10.0 mi Calm Calm - N/A   Mostly Cloudy
10:01 AM 62.6 °F 55.4 °F 77% 29.93 in 10.0 mi NW 3.5 mph - N/A   Scattered Clouds
10:54 AM 64.0 °F 55.9 °F 75% 29.97 in 10.0 mi NW 5.8 mph - N/A   Clear
11:54 AM 64.9 °F 55.9 °F 73% 29.98 in 10.0 mi West 9.2 mph - N/A   Clear
12:54 PM 68.0 °F 59.0 °F 73% 29.98 in 10.0 mi West 6.9 mph - N/A   Clear
1:54 PM 70.0 °F 60.1 °F 71% 29.98 in 10.0 mi WNW 9.2 mph - N/A   Clear
3:54 PM 72.0 °F 61.0 °F 68% 29.96 in 10.0 mi WSW 9.2 mph - N/A   Partly Cloudy
4:46 PM 69.8 °F 60.8 °F 73% 29.93 in 10.0 mi West 10.4 mph - N/A   Mostly Cloudy
4:54 PM 68.0 °F 60.1 °F 76% 29.96 in 10.0 mi WSW 10.4 mph - N/A   Mostly Cloudy
5:11 PM 66.2 °F 60.8 °F 83% 29.93 in 10.0 mi WSW 11.5 mph - N/A   Mostly Cloudy
5:54 PM 66.0 °F 61.0 °F 84% 29.97 in 4.0 mi WSW 9.2 mph - N/A   Overcast
6:54 PM 64.0 °F 61.0 °F 90% 29.96 in 10.0 mi SSW 6.9 mph - N/A   Overcast
7:54 PM 64.0 °F 61.0 °F 90% 29.97 in 3.0 mi SW 8.1 mph - N/A   Overcast
8:54 PM 63.0 °F 60.1 °F 90% 29.99 in 10.0 mi SW 8.1 mph - N/A   Overcast
9:54 PM 62.1 °F 59.0 °F 90% 30.00 in 9.0 mi SW 9.2 mph - N/A   Overcast
10:54 PM 62.1 °F 59.0 °F 90% 30.01 in 9.0 mi SSW 8.1 mph - N/A   Overcast
11:54 PM 62.1 °F 59.0 °F 90% 30.01 in 10.0 mi SSW 8.1 mph - N/A   Overcast